Regional Weather Roundup
Issued by NWS

Home | Current Version | Previous Version | Text Only | Print | Product List | Glossary Off
Versions: 1 2 3 4 5 6 7 8 9 10 11 12 13 14 15 16 17 18 19 20 21 22 23 24 25 26 27 28 29 30 31 32 33 34 35 36 37 38 39 40 41 42 43 44 45 46 47 48 49 50

000
ASUS45 KBOI 260210
RWRID
WEATHER ROUNDUP FOR IDAHO
NATIONAL WEATHER SERVICE BOISE ID
700 PM MST TUE NOV 25 2014

NOTE: "FAIR" INDICATES FEW OR NO CLOUDS BELOW 12000 FEET
WITH NO SIGNIFICANT WEATHER AND/OR OBSTRUCTIONS TO VISIBILITY

IDZ012-014-260300-
SOUTHWEST IDAHO


CITY           SKY/WX    TMP DP  RH WIND       PRES   REMARKS
BOISE          CLOUDY    53  42  66 NW8       30.26R
CALDWELL       NOT AVBL
MOUNTAIN HOME  PTCLDY    53  43  69 W16       30.24F
$$

IDZ016-017-260300-
SOUTHCENTRAL IDAHO


CITY           SKY/WX    TMP DP  RH WIND       PRES   REMARKS
BURLEY         CLOUDY    50  37  61 W21G29    30.21S
JEROME         MOCLDY    48  39  71 SW13      30.24R
TWIN FALLS     CLOUDY    53  37  54 SW21G30   30.26R
$$

IDZ019>023-260300-
SOUTHEAST IDAHO


CITY           SKY/WX    TMP DP  RH WIND       PRES   REMARKS
IDAHO FALLS    PTCLDY    42  37  82 SW18      30.08S
POCATELLO      CLOUDY    47  41  80 SW29G37   30.15R
REXBURG        CLOUDY    35  33  92 CALM      30.07S
$$

IDZ006-010-011-018-031-032-260300-
CENTRAL IDAHO MOUNTAINS


CITY           SKY/WX    TMP DP  RH WIND       PRES   REMARKS
MCCALL         LGT RAIN  35  34  96 CALM      30.20S FOG
HAILEY         PTCLDY    43  34  70 CALM      30.13R
STANLEY          N/A     39  32  76 W3        30.22R
SALMON         CLOUDY    34  32  93 CALM      30.12S
CHALLIS        CLOUDY    36  33  89 W3        30.10R
$$

IDZ002-004-006-007-026-260300-
NORTHERN IDAHO


CITY           SKY/WX    TMP DP  RH WIND       PRES   REMARKS
LEWISTON       LGT RAIN  43  42  97 E6        30.17S
LOWELL           N/A     36  34  92 N3        30.21S
COEUR D`ALENE  CLOUDY    36  32  87 CALM      30.19S
MULLAN PASS    LGT SNOW  26  23  88 SE5       30.07F FOG     WCI  20
$$


USA.gov is the U.S. government's official web portal to all federal, state and local government web resources and services.